This is the latest recevied weather packets stored in our database for station/object EA5JUX. If no packets are shown the sender has not sent any weather packets the latest 10 day(s).
| Time | Temp. | Humidity | Pressure | Rain* | Wind** | Luminosity | Snow |
|---|---|---|---|---|---|---|---|
| 1787871400 | 25.56° C | 71% | 1012.9 hPa | 0 mm | - | - | - |
| 1787871110 | 25.56° C | 71% | 1012.7 hPa | 0 mm | - | - | - |
| 1787870801 | 25.56° C | 71% | 1012.6 hPa | 0 mm | - | - | - |
| 1787870501 | 25.56° C | 72% | 1012.9 hPa | 0 mm | - | - | - |
| 1787870201 | 25.56° C | 71% | 1012.3 hPa | 0 mm | - | - | - |
| 1787869900 | 26.11° C | 70% | 1012.5 hPa | 0 mm | - | - | - |
| 1787869616 | 26.11° C | 69% | 1013.1 hPa | 0 mm | - | - | - |
| 1787869300 | 26.11° C | 70% | 1012.8 hPa | 0 mm | - | - | - |
| 1787869000 | 25.56° C | 70% | 1012.9 hPa | 0 mm | - | - | - |
| 1787868700 | 26.11° C | 71% | 1012.8 hPa | 0 mm | - | - | - |
| 1787868401 | 26.11° C | 71% | 1012.7 hPa | 0 mm | - | - | - |
| 1787868101 | 26.11° C | 69% | 1012.6 hPa | 0 mm | - | - | - |
| 1787867801 | 26.67° C | 68% | 1012.3 hPa | 0 mm | - | - | - |
| 1787867501 | 26.11° C | 67% | 1011.9 hPa | 0 mm | - | - | - |
| 1787867200 | 26.11° C | 67% | 1011.5 hPa | 0 mm | - | - | - |
| 1787866900 | 25.56° C | 70% | 1011.7 hPa | 0 mm | - | - | - |
| 1787866601 | 25° C | 72% | 1011.8 hPa | 0 mm | - | - | - |
| 1787866301 | 25.56° C | 73% | 1012.1 hPa | 0 mm | - | - | - |
| 1787866021 | 25.56° C | 71% | 1012.4 hPa | 0 mm | - | - | - |
| 1787865701 | 25.56° C | 71% | 1011.7 hPa | 0 mm | - | - | - |
| 1787865400 | 26.11° C | 71% | 1012.1 hPa | 0 mm | - | - | - |
| 1787865100 | 26.11° C | 71% | 1011.8 hPa | 0 mm | - | - | - |
| 1787864800 | 26.11° C | 71% | 1012.2 hPa | 0 mm | - | - | - |
| 1787864500 | 25.56° C | 73% | 1011.9 hPa | 0 mm | - | - | - |
| 1787864201 | 25.56° C | 76% | 1011.6 hPa | 0 mm | - | - | - |
* Rain latest hour (hover to see other rain measurements)
** Current wind speed in m/s (hover to see current wind gust speed)